1504011600.84,28088,21.75,74340.0,19.93,-28.85,-28.75,0,*4A
1504011602.12,28089,21.75,74346.3,19.93,-28.43,-28.21,0,*40
1504011603.38,28090,21.75,74348.0,19.91,-28.63,-28.59,0,*47
1504011604.63,28091,21.75,74344.3,19.89,-30.23,-30.01,0,*46
1504011605.84,28092,21.75,74346.5,19.87,-28.53,-28.15,0,*49
1504011607.09,28093,21.75,74346.8,19.85,-29.23,-29.01,0,*48
1504011608.31,28094,21.75,74344.3,19.85,-30.45,-30.23,0,*4F
1504011609.59,28095,21.75,74342.3,19.81,-30.61,-30.51,0,*49
1504011610.82,28096,21.75,74346.5,19.79,-31.05,-30.73,0,*4E
1504011612.05,28097,21.75,74342.5,19.75,-31.79,-31.61,0,*4A
1504011613.25,28098,21.75,74346.3,19.71,-31.33,-31.05,0,*4D
1504011614.53,28099,21.75,74346.0,19.69,-30.05,-29.89,0,*4C
1504011615.75,28100,21.75,74344.8,19.67,-30.05,-29.79,0,*4C
1504011616.98,28101,21.75,74346.0,19.67,-30.11,-29.73,0,*42
1504011618.22,28102,21.75,74346.0,19.65,-29.73,-29.07,0,*4C
1504011619.45,28103,21.75,74344.8,19.63,-30.27,-29.83,0,*4E
1504011620.65,28104,21.75,74346.8,19.61,-30.23,-29.83,0,*4F
1504011621.9,28105,21.75,74344.3,19.59,-30.73,-30.23,0,*42
1504011623.15,28106,21.75,74348.3,19.59,-28.91,-28.37,0,*48
1504011624.43,28107,21.75,74346.5,19.59,-28.63,-27.99,0,*4F
1504011625.69,28108,21.75,74348.5,19.57,-27.61,-26.97,0,*4C
1504011626.9,28109,21.75,74346.3,19.57,-27.29,-26.65,0,*4C
1504011628.12,28110,21.75,74346.0,19.57,-26.87,-26.29,0,*49
1504011629.4,28111,21.75,74344.8,19.59,-25.81,-25.03,0,*48
1504011630.68,28112,21.75,74348.3,19.63,-26.93,-26.33,0,*42
1504011631.95,28113,21.75,74346.3,19.63,-26.71,-26.17,0,*49
1504011633.2,28114,21.75,74344.5,19.65,-25.03,-24.31,0,*48
1504011634.46,28115,21.75,74344.8,19.65,-27.35,-26.87,0,*41
1504011635.69,28116,21.75,74344.8,19.65,-28.31,-27.67,0,*46
1504011636.97,28117,21.75,74344.8,19.65,-27.45,-26.71,0,*4D
1504011638.23,28118,21.75,74346.0,19.65,-28.05,-27.51,0,*4A
1504011639.47,28119,21.75,74346.8,19.65,-28.31,-27.71,0,*4E
1504011640.72,28120,21.75,74342.0,19.63,-28.37,-27.61,0,*45
1504011641.97,28121,21.75,74340.8,19.63,-27.71,-27.19,0,*46
1504011643.2,28122,21.75,74344.0,19.63,-26.61,-26.03,0,*4F
1504011644.42,28123,21.75,74342.0,19.65,-25.19,-24.51,0,*41
1504011645.65,28124,21.75,74344.3,19.65,-25.13,-24.31,0,*4A
1504011646.88,28125,21.75,74342.3,19.69,-25.23,-24.47,0,*45
1504011648.13,28126,21.75,74342.3,19.69,-25.29,-24.31,0,*4D
1504011649.33,28127,21.75,74342.5,19.71,-25.61,-24.77,0,*4B
1504011650.56,28128,21.75,74340.5,19.75,-25.49,-24.67,0,*4B
1504011651.82,28129,21.75,74340.0,19.75,-25.71,-24.87,0,*4F
1504011653.04,28130,21.75,74338.8,19.77,-25.35,-24.51,0,*4E
1504011654.28,28131,21.75,74336.5,19.79,-24.83,-24.11,0,*49
1504011655.53,28132,21.75,74340.0,19.79,-24.83,-23.95,0,*41
1504011656.78,28133,21.75,74340.8,19.81,-25.75,-24.93,0,*4E
1504011658.01,28134,21.75,74338.0,19.83,-25.29,-24.47,0,*4B
1504011659.26,28135,21.75,74338.0,19.85,-25.49,-24.67,0,*48
1504011660.52,28136,21.75,74336.5,19.83,-26.29,-25.71,0,*4E
1504011661.74,28137,21.75,74336.5,19.83,-27.93,-27.45,0,*4A
1504011662.97,28138,21.75,74338.8,19.83,-27.93,-27.39,0,*4E
1504011664.2,28139,21.75,74336.8,19.81,-28.53,-27.93,0,*4E
1504011665.46,28140,21.75,74336.0,19.81,-26.97,-26.45,0,*4C
1504011666.72,28141,21.75,74338.8,19.81,-26.93,-26.45,0,*49
1504011668.01,28142,21.75,74338.5,19.81,-26.81,-26.33,0,*48
1504011669.26,28143,21.75,74340.5,19.83,-26.71,-26.17,0,*42
1504011670.49,28144,21.75,74340.0,19.81,-26.61,-25.91,0,*4B
1504011671.7,28145,21.75,74338.5,19.79,-26.65,-26.07,0,*45
1504011672.92,28146,21.75,74344.3,19.79,-25.97,-25.13,0,*4E
1504011674.17,28147,21.75,74340.0,19.81,-25.09,-24.11,0,*4C
1504011675.37,28148,21.75,74342.0,19.83,-25.91,-24.77,0,*40
1504011676.64,28149,21.75,74340.8,19.81,-26.93,-25.65,0,*40
1504011677.9,28150,21.75,74338.8,19.83,-26.33,-24.87,0,*4D
1504011679.15,28151,21.75,74340.5,19.81,-25.29,-24.51,0,*4D
1504011680.41,28152,21.75,74338.5,19.81,-25.91,-25.75,0,*4A
1504011681.69,28153,21.75,74340.5,19.77,-25.71,-26.13,0,*4F
1504011682.94,28154,21.75,74342.3,19.79,-26.93,-27.45,0,*4B
1504011684.16,28155,21.75,74340.3,19.77,-27.89,-28.69,0,*4F
1504011685.41,28156,21.75,74342.3,19.75,-28.05,-28.75,0,*48
1504011686.67,28157,21.75,74340.0,19.71,-28.25,-28.91,0,*45
1504011687.93,28158,21.81,74340.8,19.69,-28.97,-29.51,0,*47
1504011689.15,28159,21.75,74338.5,19.67,-28.75,-29.07,0,*47
1504011690.4,28160,21.75,74338.5,19.67,-29.01,-29.39,0,*42
1504011691.65,28161,21.75,74340.5,19.63,-30.01,-30.27,0,*48
1504011692.9,28162,21.75,74342.3,19.61,-30.73,-30.73,0,*4D
1504011694.18,28163,21.75,74338.3,19.59,-29.51,-29.39,0,*49
1504011695.43,28164,21.75,74340.8,19.55,-29.73,-29.45,0,*49
1504011696.66,28165,21.75,74340.0,19.55,-29.07,-28.97,0,*45
1504011697.88,28166,21.75,74340.5,19.55,-29.07,-28.97,0,*46
1504011699.11,28167,21.75,74342.5,19.53,-28.79,-28.37,0,*43
1504011700.31,28168,21.75,74342.5,19.53,-27.71,-27.51,0,*44
1504011701.57,28169,21.75,74340.0,19.49,-27.23,-26.81,0,*45
1504011702.77,28170,21.75,74340.0,19.53,-27.51,-27.07,0,*4C
1504011704.02,28171,21.75,74342.8,19.53,-27.19,-26.77,0,*47
1504011705.24,28172,21.75,74340.0,19.49,-27.99,-27.77,0,*46
1504011706.47,28173,21.75,74342.3,19.53,-29.07,-28.75,0,*48
1504011707.67,28174,21.75,74342.5,19.53,-27.89,-27.51,0,*4E
1504011708.89,28175,21.81,74344.5,19.49,-26.87,-26.55,0,*4E
1504011710.16,28176,21.75,74340.5,19.49,-27.61,-27.39,0,*4F
1504011711.4,28177,21.75,74342.5,19.53,-27.19,-26.77,0,*41
1504011712.61,28178,21.75,74340.3,19.53,-26.49,-26.07,0,*4D
1504011713.87,28179,21.75,74342.3,19.55,-26.33,-26.07,0,*47
1504011715.13,28180,21.75,74340.0,19.55,-27.51,-27.35,0,*44
1504011716.38,28181,21.75,74340.5,19.55,-28.09,-27.89,0,*40
1504011717.61,28182,21.75,74340.3,19.55,-26.65,-26.23,0,*46
1504011718.85,28183,21.81,74340.0,19.55,-26.03,-25.61,0,*42
1504011720.1,28184,21.81,74342.0,19.55,-26.93,-26.65,0,*4B
1504011721.32,28185,21.81,74342.5,19.57,-27.29,-27.03,0,*49
1504011722.54,28186,21.75,74342.5,19.57,-26.45,-26.13,0,*41
1504011723.79,28187,21.81,74344.8,19.59,-26.71,-26.61,0,*4C
1504011725.02,28188,21.81,74340.0,19.57,-28.05,-27.67,0,*47
1504011726.25,28189,21.75,74340.5,19.57,-28.37,-28.05,0,*4C
1504011727.51,28190,21.81,74340.8,19.55,-28.91,-28.69,0,*40
1504011728.76,28191,21.75,74340.3,19.55,-29.45,-29.13,0,*45
1504011730.01,28192,21.81,74340.0,19.55,-27.55,-27.35,0,*43
1504011731.21,28193,21.75,74340.8,19.53,-27.93,-27.55,0,*48
1504011732.43,28194,21.75,74340.8,19.53,-28.43,-27.93,0,*47
1504011733.67,28195,21.75,74340.0,19.49,-26.39,-26.13,0,*47
1504011734.92,28196,21.81,74344.0,19.53,-26.77,-26.55,0,*47
1504011736.15,28197,21.75,74340.8,19.53,-28.25,-27.93,0,*44
1504011737.38,28198,21.75,74342.3,19.53,-27.89,-27.39,0,*42
1504011738.63,28199,21.81,74340.8,19.49,-27.83,-27.39,0,*42
1504011739.86,28200,21.75,74342.5,19.53,-28.37,-28.09,0,*46
1504011741.09,28201,21.81,74342.0,19.49,-27.93,-27.45,0,*4A
1504011742.35,28202,21.81,74344.8,19.49,-25.97,-25.55,0,*4C
1504011743.55,28203,21.81,74340.8,19.53,-25.39,-24.93,0,*49
1504011744.79,28204,21.81,74342.5,19.53,-26.65,-26.33,0,*4C
1504011746.04,28205,21.81,74340.5,19.55,-25.55,-24.77,0,*49
1504011747.27,28206,21.81,74346.5,19.55,-25.23,-24.77,0,*4B
1504011748.49,28207,21.81,74346.0,19.57,-25.19,-24.67,0,*40
1504011749.74,28208,21.81,74340.5,19.57,-24.71,-24.15,0,*45
1504011750.95,28209,21.75,74340.3,19.61,-26.39,-25.49,0,*47
1504011752.18,28210,21.81,74342.5,19.61,-26.13,-25.65,0,*49
1504011753.38,28211,21.81,74342.0,19.61,-25.13,-24.51,0,*4D
1504011754.63,28212,21.75,74340.0,19.65,-24.87,-24.51,0,*46
1504011755.89,28213,21.75,74342.5,19.65,-25.03,-24.51,0,*4A
1504011757.15,28214,21.81,74342.3,19.65,-25.13,-24.71,0,*4E
1504011758.38,28215,21.81,74340.5,19.69,-25.61,-25.13,0,*43
1504011759.64,28216,21.81,74342.5,19.69,-26.93,-26.61,0,*48
1504011760.86,28217,21.81,74340.8,19.67,-27.19,-26.87,0,*4C
1504011762.09,28218,21.81,74342.5,19.67,-28.85,-28.59,0,*44
1504011763.31,28219,21.81,74344.3,19.67,-30.45,-30.39,0,*4F
1504011764.57,28220,21.81,74342.3,19.63,-28.91,-28.53,0,*44
1504011765.81,28221,21.81,74346.3,19.63,-29.07,-28.79,0,*43
1504011767.08,28222,21.81,74342.5,19.63,-28.63,-28.43,0,*4A
1504011768.31,28223,21.81,74342.3,19.61,-28.09,-27.67,0,*4C
1504011769.57,28224,21.81,74342.3,19.61,-26.97,-26.55,0,*42
1504011770.82,28225,21.81,74342.8,19.61,-26.29,-25.75,0,*47
1504011772.05,28226,21.81,74342.3,19.61,-27.93,-27.61,0,*43
1504011773.28,28227,21.81,74340.3,19.61,-26.65,-26.29,0,*47
1504011774.51,28228,21.81,74344.3,19.61,-28.97,-28.59,0,*42
1504011775.74,28229,21.81,74340.8,19.61,-28.25,-27.77,0,*49
1504011776.97,28230,21.81,74342.8,19.61,-27.29,-26.81,0,*4A
1504011778.2,28231,21.81,74344.5,19.61,-28.15,-27.83,0,*48
1504011779.43,28232,21.81,74340.5,19.61,-27.61,-27.13,0,*4E
1504011780.68,28233,21.81,74344.0,19.59,-29.01,-28.53,0,*47
1504011781.9,28234,21.81,74342.0,19.61,-29.67,-29.29,0,*47
1504011783.13,28235,21.81,74340.5,19.55,-31.01,-30.67,0,*4A
1504011784.39,28236,21.81,74342.8,19.55,-30.83,-30.51,0,*47
1504011785.61,28237,21.81,74340.5,19.49,-29.61,-29.13,0,*41
1504011786.85,28238,21.81,74342.8,19.49,-29.79,-29.35,0,*43
1504011788.08,28239,21.81,74340.5,19.45,-30.33,-29.89,0,*4F
1504011789.31,28240,21.81,74340.0,19.45,-31.39,-31.01,0,*43
1504011790.56,28241,21.81,74342.8,19.43,-31.67,-31.23,0,*4F
1504011791.8,28242,21.81,74342.0,19.41,-31.39,-30.83,0,*4E
1504011793.03,28243,21.81,74342.5,19.37,-31.45,-30.95,0,*42
1504011794.26,28244,21.81,74338.3,19.37,-30.45,-30.01,0,*49
1504011795.49,28245,21.81,74342.0,19.37,-29.39,-28.97,0,*4D
1504011796.75,28246,21.81,74338.8,19.33,-29.51,-29.13,0,*49
1504011798.01,28247,21.81,74342.0,19.33,-29.35,-28.79,0,*47
1504011799.25,28248,21.81,74342.0,19.33,-26.61,-25.97,0,*4B
1504011800.51,28249,21.81,74338.0,19.33,-25.71,-24.87,0,*48
1504011801.77,28250,21.81,74340.3,19.35,-28.69,-28.21,0,*42
1504011803.02,28251,21.81,74338.0,19.35,-30.27,-29.73,0,*46
1504011804.28,28252,21.81,74340.0,19.35,-28.25,-27.71,0,*42
1504011805.54,28253,21.81,74336.5,19.33,-28.59,-28.05,0,*42
1504011806.77,28254,21.81,74340.3,19.35,-27.51,-26.87,0,*40
1504011807.99,28255,21.81,74338.0,19.33,-27.19,-26.61,0,*43
1504011809.2,28256,21.81,74336.0,19.33,-26.61,-25.87,0,*45
1504011810.46,28257,21.81,74338.3,19.37,-25.03,-24.21,0,*4A
1504011811.68,28258,21.81,74338.8,19.39,-25.35,-24.61,0,*4A
1504011812.89,28259,21.81,74336.8,19.41,-25.61,-24.93,0,*48
1504011814.15,28260,21.81,74338.0,19.41,-26.29,-25.55,0,*46
1504011815.39,28261,21.81,74336.3,19.43,-25.87,-25.09,0,*4B
1504011816.63,28262,21.81,74338.8,19.43,-26.65,-26.03,0,*4E
1504011817.87,28263,21.81,74340.3,19.41,-26.39,-25.71,0,*42
1504011819.08,28264,21.81,74336.8,19.45,-25.91,-25.09,0,*4F
1504011820.36,28265,21.81,74334.5,19.47,-24.71,-23.99,0,*4C
1504011821.64,28266,21.81,74342.0,19.47,-24.15,-23.49,0,*40
1504011822.87,28267,21.81,74338.8,19.49,-24.47,-23.95,0,*49
1504011824.1,28268,21.81,74338.8,19.53,-23.49,-23.39,0,*42
1504011825.34,28269,21.81,74340.3,19.53,-24.11,-24.11,0,*44
1504011826.6,28270,21.81,74340.3,19.55,-24.35,-24.21,0,*4F
1504011827.8,28271,21.81,74336.8,19.57,-25.13,-24.51,0,*4E
1504011829.03,28272,21.81,74338.3,19.59,-24.57,-23.75,0,*43
1504011830.28,28273,21.81,74340.3,19.59,-27.13,-25.97,0,*4B
1504011831.56,28274,21.81,74338.0,19.59,-28.05,-26.97,0,*47
1504011832.81,28275,21.81,74338.3,19.59,-28.31,-27.19,0,*46
1504011834.03,28276,21.81,74336.3,19.57,-27.99,-27.13,0,*4C
1504011835.26,28277,21.81,74338.8,19.57,-28.75,-27.67,0,*43
1504011836.49,28278,21.81,74340.3,19.53,-27.93,-26.93,0,*45
1504011837.74,28279,21.81,74342.8,19.49,-28.09,-26.93,0,*43
1504011838.98,28280,21.81,74340.3,19.49,-27.39,-26.07,0,*44
1504011840.23,28281,21.81,74342.8,19.49,-29.13,-27.83,0,*4E
1504011841.47,28282,21.81,74338.0,19.45,-28.53,-27.39,0,*45
1504011842.7,28283,21.81,74342.0,19.45,-28.91,-27.93,0,*4A
1504011843.92,28284,21.81,74338.5,19.45,-27.35,-26.23,0,*46
1504011845.15,28285,21.81,74340.5,19.41,-27.99,-27.89,0,*44
1504011846.41,28286,21.81,74338.5,19.43,-25.91,-25.55,0,*4C
1504011847.64,28287,21.81,74340.5,19.43,-25.65,-25.23,0,*47
1504011848.88,28288,21.81,74340.5,19.45,-25.71,-25.49,0,*47
1504011850.11,28289,21.81,74340.0,19.45,-25.23,-25.03,0,*4F
1504011851.36,28290,21.81,74342.0,19.45,-24.87,-24.67,0,*4B
1504011852.62,28291,21.81,74340.3,19.49,-24.71,-24.67,0,*4F
1504011853.85,28292,21.81,74340.3,19.49,-26.29,-26.23,0,*41
1504011855.08,28293,21.81,74342.8,19.49,-27.99,-27.93,0,*40
1504011856.33,28294,21.81,74342.8,19.49,-26.71,-26.55,0,*4B
1504011857.61,28295,21.81,74340.5,19.47,-27.61,-27.45,0,*44
1504011858.87,28296,21.81,74340.5,19.47,-28.21,-28.37,0,*46
1504011860.1,28297,21.81,74342.3,19.45,-29.89,-29.79,0,*4D
1504011861.33,28298,21.81,74342.3,19.45,-28.37,-28.09,0,*40
1504011862.54,28299,21.81,74346.5,19.45,-26.49,-26.23,0,*40
1504011863.77,28300,21.81,74342.0,19.43,-25.39,-25.19,0,*49
1504011865.05,28301,21.81,74340.3,19.47,-24.87,-24.71,0,*47
1504011866.3,28302,21.81,74342.0,19.47,-27.29,-27.19,0,*4E
1504011867.55,28303,21.81,74340.0,19.47,-27.67,-27.45,0,*4C
1504011868.81,28304,21.81,74338.8,19.47,-26.45,-26.29,0,*41
1504011870.03,28305,21.81,74340.3,19.53,-27.03,-26.77,0,*4D
1504011871.27,28306,21.81,74340.5,19.49,-26.71,-26.39,0,*4B
1504011872.48,28307,21.81,74344.5,19.49,-26.07,-25.65,0,*41
1504011873.71,28308,21.81,74342.8,19.53,-26.39,-26.17,0,*4E
1504011874.94,28309,21.81,74340.0,19.49,-28.05,-27.71,0,*44
1504011876.14,28310,21.81,74338.0,19.53,-27.89,-27.55,0,*4A
1504011877.37,28311,21.81,74336.8,19.53,-28.09,-27.77,0,*4C
1504011878.6,28312,21.81,74342.0,19.49,-28.43,-28.15,0,*41
1504011879.83,28313,21.81,74342.0,19.49,-29.17,-28.97,0,*4A
1504011881.04,28314,21.81,74342.0,19.45,-28.37,-27.93,0,*49
1504011882.29,28315,21.81,74338.5,19.47,-28.85,-28.47,0,*45
1504011883.56,28316,21.81,74342.0,19.47,-27.61,-27.29,0,*44
1504011884.79,28317,21.81,74342.8,19.45,-25.75,-25.39,0,*43
1504011886.05,28318,21.81,74342.3,19.49,-26.55,-26.29,0,*43
1504011887.28,28319,21.81,74340.3,19.49,-27.07,-26.77,0,*4F
1504011888.54,28320,21.81,74340.3,19.53,-28.25,-28.09,0,*46
1504011889.77,28321,21.81,74340.5,19.49,-26.45,-26.13,0,*41
1504011890.98,28322,21.81,74340.5,19.53,-25.91,-25.49,0,*4F
1504011892.23,28323,21.81,74338.8,19.53,-28.25,-28.09,0,*45
1504011893.46,28324,21.81,74338.3,19.53,-29.39,-29.23,0,*47
1504011894.66,28325,21.81,74336.5,19.49,-28.31,-27.93,0,*41
1504011895.9,28326,21.81,74338.3,19.49,-28.25,-27.93,0,*47
1504011897.14,28327,21.81,74342.8,19.49,-28.63,-28.15,0,*45
1504011898.4,28328,21.81,74340.8,19.47,-30.39,-30.05,0,*4A
1504011899.66,28329,21.81,74342.8,19.47,-28.85,-28.47,0,*4A
1504011900.92,28330,21.81,74340.3,19.47,-29.51,-29.57,0,*4A
1504011902.12,28331,21.81,74338.8,19.45,-28.97,-28.69,0,*4E
1504011903.38,28332,21.81,74340.5,19.45,-29.39,-29.29,0,*4D
1504011904.61,28333,21.81,74342.8,19.41,-31.05,-30.89,0,*4C
1504011905.88,28334,21.81,74338.5,19.41,-31.23,-30.89,0,*4F
1504011907.14,28335,21.81,74342.0,19.37,-30.89,-30.61,0,*48
1504011908.38,28336,21.81,74338.5,19.37,-31.45,-31.11,0,*4C
1504011909.59,28337,21.81,74338.0,19.33,-32.57,-32.39,0,*40
1504011910.83,28338,21.81,74342.0,19.27,-32.01,-31.95,0,*4C
1504011912.08,28339,21.81,74338.8,19.25,-32.01,-31.91,0,*4B
1504011913.35,28340,21.81,74340.0,19.25,-32.97,-32.79,0,*4F
1504011914.61,28341,21.81,74342.8,19.19,-31.11,-30.95,0,*4C
1504011915.89,28342,21.81,74340.3,19.17,-31.91,-31.85,0,*49
1504011917.14,28343,21.81,74340.3,19.15,-31.85,-31.91,0,*4A
1504011918.39,28344,21.81,74342.8,19.13,-32.75,-32.57,0,*4E
1504011919.6,28345,21.81,74338.8,19.11,-32.69,-32.51,0,*46
1504011920.83,28346,21.81,74338.8,19.07,-32.19,-32.01,0,*40
1504011922.07,28347,21.81,74338.5,19.07,-31.11,-30.83,0,*42
1504011923.35,28348,21.81,74336.8,19.01,-33.77,-33.73,0,*45
1504011924.59,28349,21.81,74336.8,18.97,-34.95,-34.89,0,*43
1504011925.79,28350,21.81,74336.0,18.93,-35.71,-35.59,0,*48
1504011927.02,28351,21.81,74338.8,18.89,-35.47,-35.41,0,*4E
1504011928.27,28352,21.81,74338.0,18.85,-35.65,-35.53,0,*42
1504011929.55,28353,21.81,74338.3,18.79,-35.53,-35.41,0,*46
1504011930.83,28354,21.81,74336.5,18.75,-36.49,-36.49,0,*4E
1504011932.12,28355,21.81,74336.3,18.71,-35.95,-35.95,0,*4B
1504011933.35,28356,21.81,74340.0,18.65,-35.47,-35.29,0,*45
1504011934.59,28357,21.81,74340.5,18.63,-35.65,-35.65,0,*4A
1504011935.85,28358,21.81,74338.8,18.57,-35.47,-35.41,0,*44
1504011937.07,28359,21.81,74336.0,18.53,-37.15,-37.15,0,*47
1504011938.35,28360,21.81,74338.8,18.49,-37.09,-36.91,0,*46
1504011939.57,28361,21.81,74336.8,18.45,-37.15,-36.97,0,*40
1504011940.8,28362,21.81,74334.3,18.37,-37.15,-37.15,0,*4D
1504011942.01,28363,21.88,74338.8,18.33,-35.89,-35.71,0,*4F
1504011943.29,28364,21.81,74332.5,18.31,-33.31,-33.09,0,*46
1504011944.52,28365,21.81,74332.0,18.29,-33.37,-33.43,0,*46
1504011945.75,28366,21.81,74338.5,18.27,-33.21,-33.03,0,*48
1504011946.95,28367,21.81,74336.3,18.29,-29.79,-29.45,0,*48
1504011948.2,28368,21.81,74338.0,18.29,-30.39,-30.17,0,*44
1504011949.43,28369,21.81,74338.8,18.31,-32.57,-32.57,0,*40
1504011950.71,28370,21.81,74336.8,18.27,-34.53,-34.53,0,*4F
1504011951.95,28371,21.81,74336.3,18.25,-32.91,-32.75,0,*46
1504011953.17,28372,21.81,74338.3,18.23,-32.57,-32.57,0,*49
1504011954.44,28373,21.81,74336.8,18.23,-30.67,-30.61,0,*4E
1504011955.69,28374,21.81,74336.0,18.25,-30.55,-30.39,0,*43
1504011956.96,28375,21.81,74338.5,18.23,-31.91,-31.73,0,*42
1504011958.24,28376,21.81,74336.5,18.23,-31.39,-31.23,0,*46
1504011959.53,28377,21.81,74338.3,18.23,-31.57,-31.23,0,*4F
1504011960.78,28378,21.81,74336.5,18.21,-31.61,-31.57,0,*44
1504011962.05,28379,21.81,74338.0,18.19,-30.89,-30.67,0,*4B
1504011963.31,28380,21.81,74338.3,18.21,-32.07,-32.07,0,*46
1504011964.56,28381,21.81,74336.8,18.19,-32.51,-32.29,0,*43
1504011965.84,28382,21.81,74338.3,18.19,-33.43,-33.31,0,*4A
1504011967.08,28383,21.81,74338.8,18.13,-32.07,-32.01,0,*42
1504011968.31,28384,21.81,74336.5,18.13,-31.57,-31.33,0,*41
1504011969.57,28385,21.81,74338.5,18.13,-31.39,-31.23,0,*49
1504011970.8,28386,21.81,74338.0,18.13,-31.67,-31.51,0,*44
1504011972.05,28387,21.81,74338.8,18.13,-31.91,-31.91,0,*40
1504011973.34,28388,21.81,74340.3,18.11,-30.77,-30.61,0,*4A
1504011974.61,28389,21.81,74338.0,18.09,-30.89,-30.89,0,*45
1504011975.82,28390,21.88,74342.0,18.09,-29.61,-29.45,0,*4B
1504011977.07,28391,21.81,74340.8,18.09,-30.55,-30.39,0,*46
1504011978.32,28392,21.81,74336.8,18.11,-30.51,-30.45,0,*43
1504011979.58,28393,21.81,74338.8,18.09,-30.51,-30.39,0,*40
1504011980.81,28394,21.81,74336.8,18.13,-31.17,-31.11,0,*44
1504011982.05,28395,21.81,74338.8,18.09,-31.23,-31.01,0,*48
1504011983.31,28396,21.81,74336.8,18.09,-33.31,-33.31,0,*4B
1504011984.56,28397,21.81,74338.5,18.05,-34.31,-34.19,0,*4C
1504011985.83,28398,21.81,74336.0,18.05,-31.95,-31.95,0,*49
1504011987.03,28399,21.81,74336.3,18.03,-32.51,-32.35,0,*4C
1504011988.28,28400,21.81,74336.0,18.01,-32.63,-32.39,0,*44
1504011989.56,28401,21.81,74338.3,18.01,-31.73,-31.73,0,*4A
1504011990.79,28402,21.81,74340.5,17.99,-31.45,-31.39,0,*4C
1504011992.07,28403,21.81,74338.0,17.97,-30.05,-29.89,0,*44
1504011993.29,28404,21.81,74342.0,17.99,-29.51,-29.23,0,*44
1504011994.54,28405,21.81,74336.0,17.99,-28.79,-28.47,0,*4D
1504011995.77,28406,21.81,74336.3,17.99,-29.61,-29.35,0,*42
1504011997.01,28407,21.81,74340.3,18.01,-30.83,-30.83,0,*4C
1504011998.29,28408,21.81,74342.0,18.01,-32.79,-32.85,0,*40
1504011999.54,28409,21.81,74342.8,17.99,-32.63,-32.63,0,*4C
1504012000.79,28410,21.81,74342.3,17.95,-33.27,-33.31,0,*4F
1504012002.02,28411,21.81,74342.0,17.91,-33.21,-33.31,0,*4C
1504012003.24,28412,21.81,74340.8,17.91,-32.97,-33.03,0,*42
1504012004.44,28413,21.88,74342.5,17.87,-33.95,-33.95,0,*48
1504012005.73,28414,21.81,74336.5,17.85,-34.83,-34.65,0,*45
1504012006.96,28415,21.81,74340.8,17.83,-34.07,-34.01,0,*4C
1504012008.21,28416,21.88,74340.0,17.79,-33.09,-32.97,0,*4A
1504012009.47,28417,21.81,74338.0,17.79,-33.43,-33.73,0,*4E
1504012010.7,28418,21.88,74342.0,17.75,-33.67,-33.77,0,*4F
1504012011.98,28419,21.88,74340.5,17.73,-34.31,-34.31,0,*49
1504012013.23,28420,21.81,74338.8,17.69,-34.01,-33.89,0,*4F
1504012014.46,28421,21.81,74336.3,17.69,-31.23,-31.01,0,*49
1504012015.69,28422,21.81,74340.3,17.69,-31.39,-31.05,0,*45
1504012016.95,28423,21.88,74338.3,17.73,-29.45,-29.39,0,*4B
1504012018.23,28424,21.88,74338.8,17.73,-31.39,-31.39,0,*47
1504012019.52,28425,21.88,74340.3,17.73,-34.01,-34.01,0,*46
1504012020.78,28426,21.88,74338.5,17.67,-35.77,-35.83,0,*4B
1504012021.99,28427,21.81,74338.8,17.61,-36.43,-36.31,0,*42
1504012023.2,28428,21.81,74336.5,17.57,-36.01,-36.01,0,*4D
1504012024.43,28429,21.88,74340.3,17.55,-35.89,-36.07,0,*4B
1504012025.67,28430,21.81,74336.5,17.53,-35.53,-35.65,0,*45
1504012026.95,28431,21.81,74336.8,17.43,-36.13,-36.25,0,*45
1504012028.18,28432,21.88,74338.3,17.43,-36.07,-36.07,0,*43
1504012029.44,28433,21.88,74340.8,17.39,-36.49,-36.67,0,*43
1504012030.69,28434,21.81,74338.3,17.35,-34.01,-34.13,0,*47
1504012031.9,28435,21.81,74338.0,17.33,-34.07,-33.95,0,*4F
1504012033.14,28436,21.81,74338.8,17.33,-33.89,-33.77,0,*41
1504012034.4,28437,21.88,74338.5,17.31,-33.55,-33.49,0,*4E
1504012035.63,28438,21.88,74338.5,17.29,-30.67,-30.51,0,*40
1504012036.88,28439,21.81,74338.3,17.31,-29.29,-29.23,0,*47
1504012038.1,28440,21.88,74338.8,17.33,-30.23,-29.89,0,*49
1504012039.34,28441,21.81,74336.5,17.31,-32.69,-32.69,0,*42
1504012040.58,28442,21.88,74338.8,17.33,-30.95,-30.83,0,*44
1504012041.83,28443,21.88,74338.5,17.31,-32.23,-32.29,0,*4A
1504012043.12,28444,21.81,74340.0,17.31,-33.49,-33.31,0,*48
1504012044.35,28445,21.81,74336.0,17.31,-33.37,-33.21,0,*41
1504012045.64,28446,21.88,74340.8,17.27,-34.53,-34.53,0,*42
1504012046.86,28447,21.88,74340.5,17.23,-33.95,-33.83,0,*40
1504012048.09,28448,21.88,74340.3,17.21,-32.75,-32.57,0,*4A
1504012049.31,28449,21.88,74340.8,17.21,-32.75,-32.57,0,*4B
1504012050.59,28450,21.88,74338.5,17.19,-33.31,-33.31,0,*48
1504012051.8,28451,21.88,74340.8,17.17,-34.71,-34.71,0,*47
1504012053.05,28452,21.88,74342.5,17.13,-33.61,-33.31,0,*45
1504012054.31,28453,21.81,74338.5,17.13,-33.31,-33.31,0,*41
1504012055.55,28454,21.88,74342.5,17.11,-34.47,-34.47,0,*44
1504012056.8,28455,21.88,74342.8,17.07,-34.01,-33.89,0,*45
1504012058.05,28456,21.88,74340.0,17.05,-33.67,-33.61,0,*45
1504012059.32,28457,21.88,74338.5,17.05,-34.19,-34.19,0,*42
1504012060.55,28458,21.88,74340.3,17.05,-33.83,-33.83,0,*4D
1504012061.78,28459,21.88,74340.8,16.99,-33.55,-33.31,0,*4A
1504012063.03,28460,21.88,74340.0,16.97,-31.91,-31.79,0,*4A
1504012064.24,28461,21.88,74340.0,16.99,-30.45,-30.33,0,*42
1504012065.45,28462,21.88,74342.0,16.99,-29.07,-28.69,0,*49
1504012066.7,28463,21.88,74340.8,17.01,-28.37,-28.05,0,*40
1504012067.93,28464,21.88,74342.5,17.05,-28.37,-28.15,0,*42
1504012069.17,28465,21.88,74340.3,17.07,-28.59,-28.31,0,*4F
1504012070.4,28466,21.88,74340.0,17.09,-28.63,-28.53,0,*4F
1504012071.68,28467,21.88,74338.5,17.11,-31.51,-31.51,0,*44
1504012072.91,28468,21.88,74338.0,17.11,-33.03,-32.91,0,*41
1504012074.16,28469,21.88,74340.5,17.09,-31.91,-31.73,0,*4F
1504012075.42,28470,21.88,74338.5,17.09,-31.73,-31.85,0,*42
1504012076.65,28471,21.81,74338.5,17.05,-34.71,-34.77,0,*40
1504012077.88,28472,21.88,74338.0,17.05,-33.95,-34.13,0,*4C
1504012079.09,28473,21.88,74342.8,16.99,-34.07,-34.07,0,*40
1504012080.36,28474,21.88,74336.0,16.97,-33.77,-33.89,0,*48
1504012081.57,28475,21.88,74338.5,16.95,-34.07,-34.07,0,*4A
1504012082.8,28476,21.88,74342.3,16.93,-34.13,-34.13,0,*4F
1504012084.0,28477,21.81,74336.5,16.91,-32.23,-32.01,0,*4C
1504012085.22,28478,21.88,74338.0,16.91,-30.83,-30.83,0,*43
1504012086.45,28479,21.88,74336.8,16.91,-30.11,-30.17,0,*44
1504012087.7,28480,21.88,74338.5,16.93,-30.05,-29.95,0,*47
1504012088.96,28481,21.88,74342.5,16.91,-30.77,-30.61,0,*42
1504012090.22,28482,21.88,74342.0,16.93,-29.67,-29.51,0,*41
1504012091.47,28483,21.88,74336.8,16.93,-28.85,-28.79,0,*46
1504012092.7,28484,21.88,74338.5,16.95,-29.17,-28.97,0,*4D
1504012093.9,28485,21.88,74338.0,16.95,-29.61,-29.45,0,*43
1504012095.13,28486,21.88,74336.5,16.95,-29.13,-28.85,0,*48
1504012096.39,28487,21.88,74336.5,16.97,-28.85,-28.79,0,*46